sat.trackr.live / text

‹ back to catalog

STARLINK-6232

NORAD 57085 · 2023-088AP

PAYLOAD ACTIVE UNKNOWN

§ Identity

Operator
Country
US
Launch date
2023-06-22
Launch site
AFWTR
Launch vehicle
Mass (kg)
RCS (m²)

Purposes: comms

External: N2YO · Heavens-Above · Gunter

§ Orbital elements

Epoch: 2026-09-20T04:55:57.926784Z

Period
94.27 min
Inclination
43.0055°
Eccentricity
0.0001589
Mean motion
15.27581363 rev/d
Perigee alt
482.0 km
Apogee alt
484.1 km
Semi-major
6,861.2 km
B*
-3.0085e-5
RAAN
77.2073°
Arg perigee
259.5929°
Mean anomaly
100.4743°
Rev number
18,025

§ Raw data

STARLINK-62321 57085U 23088AP  26263.20553156 -.00001090  00000+0 -30085-4 0  99932 57085  43.0055  77.2073 0001589 259.5929 100.4743 15.27581363180250

JSON: /api/v1/satellites/57085 · /tle

For live sub-satellite position, see the globe view (requires WebGL).

§ Visibility from observer

Set your observer location to see the next 7 days of passes ≥ 10°. The values pass through the URL so the page stays shareable.

No JS? Fill the form by hand. The geolocation button needs JavaScript.